Location: Newark
(44.6768°N, 22.5302°E)
Time: 15:16:43
(UTC+00:00)

UKube-1 - Visible Passes

Search period start: 02 July 2022 00:00
Search period end: 12 July 2022 00:00
Orbit: 610 x 614 km, 98.4° (Epoch: 02 July)

Date Brightness Start Highest point End Pass type
(mag) Time Alt. Az. Time Alt. Az. Time Alt. Az.
02 Jul ? 19:14:29 10° ENE 19:16:05 12° E 19:17:41 10° ESE visible
02 Jul ? 20:48:10 10° N 20:52:27 69° WNW 20:54:49 25° SSW visible
03 Jul ? 19:28:16 10° NE 19:31:04 17° E 19:32:48 14° ESE visible
03 Jul ? 21:03:05 10° N 21:07:13 48° WNW 21:09:47 21° SW visible
04 Jul ? 19:42:32 10° NE 19:46:01 23° E 19:47:45 18° SE visible
04 Jul ? 21:18:04 10° N 21:21:58 34° WNW 21:24:45 16° SW visible
05 Jul ? 19:57:01 10° NNE 20:00:56 33° E 20:02:41 23° SE visible
05 Jul ? 21:33:10 10° N 21:36:40 25° WNW 21:39:41 12° WSW visible
06 Jul ? 20:11:38 10° NNE 20:15:48 47° E 20:17:38 28° SSE visible
06 Jul ? 21:48:22 10° NNW 21:51:20 18° WNW 21:54:18 10° WSW visible
07 Jul ? 20:26:21 10° NNE 20:30:39 68° ESE 20:32:34 31° S visible
07 Jul ? 22:03:51 10° NNW 22:05:59 14° WNW 22:08:08 10° W visible
08 Jul ? 20:41:08 10° NNE 20:45:27 85° WNW 20:47:30 30° SSW visible
09 Jul ? 19:21:46 10° ENE 19:23:57 14° E 19:25:27 12° ESE visible
09 Jul ? 20:56:00 10° N 21:00:14 59° WNW 21:02:26 27° SW visible
10 Jul ? 19:35:48 10° NE 19:38:54 19° E 19:40:22 16° ESE visible
10 Jul ? 21:10:56 10° N 21:14:58 41° WNW 21:17:22 21° SW visible
11 Jul ? 19:50:09 10° NE 19:53:49 27° E 19:55:17 22° SE visible
11 Jul ? 21:25:57 10° N 21:29:41 30° WNW 21:32:17 16° WSW visible
